Pontiac, MI

1:28 AM EST on November 18, 2019 (GMT -0500)
Oakland County International

Weather History for KPTK - June, 2019

Change the Weather History Date:

Thursday, June 13, 2019

  Actual Average Record
Temperature  
Mean Temperature 57 °F -  
Max Temperature 61 °F 74 °F 91 °F (2007)
Min Temperature 52 °F 55 °F 46 °F (2012)
Degree Days  
Heating Degree Days 8    
Growing Degree Days 7 (Base 50)    
Moisture  
Dew Point 54 °F    
Average Humidity 94    
Maximum Humidity 100    
Minimum Humidity 81    
Precipitation  
Precipitation 1.06 in - - ()
Sea Level Pressure  
Sea Level Pressure 29.69 in    
Wind  
Wind Speed 9 mph (NNW)    
Max Wind Speed 18 mph    
Max Gust Speed 28 mph    
Visibility 8 miles    
Events Rain , Thunderstorm    
Averages and records for this station are not official NWS values.
T = Trace of Precipitation, MM = Missing Value Source: NWS Daily Summary

Daily Weather History Graph

Daily Weather History Graph

Search for Another Location

Airport or City:

Astronomy

Jun. 13, 2019 Rise Set
Actual Time 5:55 AM EDT 9:12 PM EDT
Civil Twilight 5:20 AM EDT 9:47 PM EDT
Nautical Twilight 4:35 AM EDT 10:32 PM EDT
Astronomical Twilight 3:39 AM EDT 11:28 PM EDT
Moon 5:20 PM EDT (6/13) 3:46 AM EDT (6/13)
Length of Visible Light 16h 27m
Length of Day
15h 17m
Waxing Gibbous, 85% of the Moon is Illuminated
Jun 13
Waxing Gibbous
Jun 17
Full
Jun 25
Last Quarter
Jul 2
New
Jul 9
First Quarter

Hourly Weather History & Observations

Time (EDT) Temp. Dew Point Humidity Pressure Visibility Wind Dir Wind Speed Gust Speed Precip Events Conditions
12:13 AM 57.0 °F 55.0 °F 93% 29.78 in 3.0 mi NNW 6.9 mph - 0.08 in Rain Rain
12:53 AM 55.9 °F 55.9 °F 100% 29.75 in 6.0 mi NNE 5.8 mph - 0.19 in Rain Light Rain
1:40 AM 55.9 °F 55.9 °F 100% 29.73 in 5.0 mi NE 10.4 mph - 0.09 in Rain Light Rain
1:53 AM 55.9 °F 55.9 °F 100% 29.71 in 8.0 mi NNE 6.9 mph - 0.10 in Rain Light Rain
2:53 AM 55.9 °F 55.9 °F 100% 29.68 in 9.0 mi NNE 6.9 mph - 0.01 in Rain Light Rain
3:27 AM 55.0 °F 55.0 °F 100% 29.68 in 2.0 mi North 5.8 mph - 0.15 in Rain Heavy Rain
3:34 AM 55.0 °F 55.0 °F 100% 29.67 in 1.5 mi North 10.4 mph - 0.28 in Rain Heavy Rain
3:42 AM 55.0 °F 55.0 °F 100% 29.67 in 3.0 mi North 11.5 mph - 0.31 in Rain Light Rain
3:53 AM 55.0 °F 55.0 °F 100% 29.66 in 10.0 mi North 11.5 mph - 0.31 in   Overcast
4:11 AM 55.9 °F 55.0 °F 97% 29.67 in 2.5 mi NW 11.5 mph - 0.08 in Rain , Thunderstorm Heavy Rain
4:16 AM 57.0 °F 55.0 °F 93% 29.68 in 1.8 mi West 11.5 mph - 0.15 in Rain , Thunderstorm Heavy Rain
4:26 AM 55.0 °F 55.0 °F 100% 29.68 in 2.0 mi WNW 15.0 mph - 0.25 in Rain Heavy Rain
4:35 AM 55.0 °F 55.0 °F 100% 29.68 in 2.5 mi NW 10.4 mph - 0.31 in Rain , Thunderstorm Rain
4:45 AM 55.0 °F 55.0 °F 100% 29.66 in 4.0 mi NNW 10.4 mph - 0.33 in Rain , Thunderstorm Light Rain
4:53 AM 55.0 °F 55.0 °F 100% 29.65 in 6.0 mi North 10.4 mph - 0.33 in Rain Light Rain
5:53 AM 55.0 °F 55.0 °F 100% 29.62 in 10.0 mi North 8.1 mph - 0.01 in   Overcast
6:39 AM 55.0 °F 55.0 °F 100% 29.63 in 10.0 mi NNW 6.9 mph - 0.00 in   Overcast
6:53 AM 55.0 °F 55.0 °F 100% 29.62 in 10.0 mi WNW 4.6 mph - 0.00 in   Mostly Cloudy
7:07 AM 55.0 °F 55.0 °F 100% 29.63 in 10.0 mi WNW 4.6 mph - N/A   Overcast
7:53 AM 55.9 °F 55.0 °F 97% 29.64 in 10.0 mi North 3.5 mph - N/A   Overcast
8:53 AM 55.9 °F 55.0 °F 97% 29.63 in 10.0 mi NW 4.6 mph - 0.00 in Rain Light Rain
9:27 AM 57.0 °F 55.0 °F 93% 29.64 in 10.0 mi NNW 4.6 mph - 0.00 in Rain Light Rain
9:53 AM 57.0 °F 55.0 °F 93% 29.63 in 10.0 mi NNW 4.6 mph - 0.00 in   Overcast
10:53 AM 57.0 °F 54.0 °F 89% 29.64 in 10.0 mi NW 4.6 mph - 0.00 in Rain Light Rain
11:53 AM 57.9 °F 55.0 °F 90% 29.64 in 10.0 mi NW 3.5 mph - 0.00 in   Overcast
12:47 PM 57.2 °F 55.4 °F 94% 29.63 in 6.0 mi WNW 5.8 mph - 0.00 in Rain Light Rain
12:53 PM 57.9 °F 55.0 °F 90% 29.63 in 6.0 mi WNW 4.6 mph - 0.00 in Rain Light Rain
1:53 PM 61.0 °F 55.0 °F 81% 29.63 in 10.0 mi West 9.2 mph - 0.00 in   Mostly Cloudy
2:03 PM 59.0 °F 53.1 °F 81% 29.63 in 10.0 mi NW 13.8 mph - 0.00 in Rain Light Rain
2:30 PM 55.9 °F 55.0 °F 97% 29.64 in 3.0 mi NW 10.4 mph - 0.01 in Rain Light Rain
2:53 PM 57.0 °F 55.0 °F 93% 29.65 in 8.0 mi NNW 9.2 mph - 0.01 in Rain Light Rain
3:15 PM 55.9 °F 55.0 °F 97% 29.65 in 8.0 mi North 9.2 mph - 0.00 in   Light Drizzle
3:53 PM 57.0 °F 54.0 °F 89% 29.65 in 10.0 mi NW 13.8 mph 21.9 mph 0.01 in   Light Drizzle
4:18 PM 57.0 °F 54.0 °F 89% 29.66 in 10.0 mi NNW 11.5 mph - 0.00 in   Overcast
4:44 PM 57.9 °F 54.0 °F 87% 29.67 in 10.0 mi NW 13.8 mph 19.6 mph 0.00 in Rain Light Rain
4:53 PM 57.9 °F 54.0 °F 87% 29.67 in 10.0 mi NNW 11.5 mph 19.6 mph 0.00 in Rain Light Rain
5:53 PM 55.0 °F 53.1 °F 93% 29.71 in 4.0 mi NNW 16.1 mph 25.3 mph 0.01 in Rain Light Rain
6:21 PM 55.0 °F 54.0 °F 96% 29.72 in 3.0 mi NNW 13.8 mph 23.0 mph 0.06 in Rain Heavy Rain
6:53 PM 55.0 °F 53.1 °F 93% 29.74 in 10.0 mi NW 15.0 mph 23.0 mph 0.07 in Rain Light Rain
7:53 PM 55.0 °F 52.0 °F 89% 29.77 in 10.0 mi NW 16.1 mph 27.6 mph 0.00 in Rain Light Rain
8:11 PM 54.0 °F 52.0 °F 93% 29.78 in 10.0 mi NW 18.4 mph - 0.01 in   Light Drizzle
8:38 PM 54.0 °F 51.1 °F 90% 29.79 in 10.0 mi NW 16.1 mph 24.2 mph 0.01 in   Overcast
8:53 PM 54.0 °F 52.0 °F 93% 29.80 in 10.0 mi NW 16.1 mph - 0.01 in Rain Light Rain
9:53 PM 53.1 °F 51.1 °F 93% 29.83 in 10.0 mi WNW 11.5 mph - 0.00 in   Overcast
10:53 PM 53.1 °F 51.1 °F 93% 29.85 in 10.0 mi WNW 12.7 mph - N/A   Mostly Cloudy
11:53 PM 52.0 °F 46.9 °F 83% 29.87 in 10.0 mi WNW 10.4 mph - N/A   Scattered Clouds